SCP
0 0 0 0 0 0 0 0 0 0 0 0 0 0 0 0 0 0 0 0 0 0 0 0 0 0 0 0 2 3 3 2 1 1 2 2 1 0 0 0 0 0 0 0
0 0 0 0 0 0 0 0 0 0 0 0 0 0 0 0 0 0 0 0 0 0 0 0 0 0 0 0 1 3 3 2 1 1 2 2 1 1 1 0 0 0 0 0
0 0 0 0 0 -0 0 0 0 0 -0 0 0 -0 -0 0 0 0 0 0 0 0 0 0 0 0 0 0 0 2 2 1 1 1 1 1 1 0 0 0 0 0 0 0
-0 -0 0 0 -0 0 0 0 0 0 0 0 0 0 0 0 0 0 0 0 0 0 0 0 0 0 0 0 0 0 2 2 2 1 1 1 1 1 0 0 0 0 0 0
0 -0 0 0 -0 -0 0 -0 -0 0 0 0 0 0 0 0 0 0 0 0 0 0 0 0 0 0 0 0 0 0 0 1 2 1 1 1 0 0 0 0 0 0 0 0
-0 0 0 -0 -0 0 0 0 0 0 0 0 0 -0 -0 0 0 0 0 0 0 0 0 0 0 0 0 0 0 0 0 0 1 1 0 1 1 0 0 0 0 0 0 0
0 0 0 -0 -0 -0 0 0 0 0 0 0 -0 -0 0 0 0 0 0 0 0 0 0 0 0 0 0 0 0 0 0 0 0 1 1 1 1 0 0 0 0 0 0 0
0 -0 0 0 0 0 0 0 0 0 0 0 -0 0 0 0 0 0 0 0 0 0 0 0 0 0 0 0 0 0 0 0 0 0 2 1 1 1 0 0 0 0 0 0
0 0 -0 -0 -0 -0 0 0 0 0 0 0 0 0 0 0 0 0 0 0 0 0 0 0 0 0 0 0 0 0 0 0 0 0 2 2 1 1 0 0 0 0 0 0
0 0 0 0 0 0 -0 0 -0 0 -0 0 0 0 0 0 0 0 0 0 0 0 0 0 0 0 0 0 0 0 0 0 0 0 1 1 1 1 0 0 0 0 0 0
0 0 -0 -0 0 0 0 0 0 -0 -0 0 -0 0 0 0 0 0 0 0 0 0 0 0 0 0 0 0 0 0 0 0 0 0 0 0 0 0 0 0 0 0 0 0
0 0 -0 -0 0 0 0 0 0 -0 -0 -0 0 0 0 0 0 0 -0 -0 0 0 0 0 0 0 0 0 0 0 0 0 0 0 0 0 0 0 0 0 0 0 0 0
-0 0 -0 0 0 -0 0 -0 0 -0 0 0 0 0 0 -0 -0 0 0 -0 -0 0 0 0 0 0 0 0 0 0 0 0 0 0 0 0 0 0 0 0 0 0 0 0
0 -0 -0 0 0 0 0 0 0 0 0 0 0 0 0 -0 -0 -0 -0 -0 -0 -0 -0 0 0 0 0 0 0 0 0 0 0 0 0 0 0 0 0 0 0 0 0 0
0 -0 0 0 -0 -0 0 0 0 0 -0 0 0 -0 -0 -0 -0 -0 -0 -0 -0 -0 -0 -0 0 0 0 0 0 0 0 0 0 0 0 0 0 0 0 0 0 0 0 0
0 -0 0 -0 -0 -0 -0 0 0 -0 0 -0 -0 -0 -0 -0 0 -0 -0 -0 -0 -0 -0 -0 -0 -0 0 0 0 0 0 0 0 0 0 0 0 0 0 0 0 0 0 0
0 -0 0 0 0 0 0 -0 -0 -0 -0 -0 -0 0 -0 -0 -0 -0 -0 -0 -0 -0 0 0 -0 -0 0 0 0 0 0 0 0 0 0 0 0 0 0 0 0 0 0 0
0 -0 0 0 0 0 0 -0 -0 -0 -0 -0 -0 -0 -0 0 -0 -0 -0 -0 -0 -0 0 -0 -0 -0 -0 -0 -0 0 0 0 0 0 0 0 0 0 0 0 0 0 0 0
0 0 0 0 0 0 -0 -0 -0 0 -0 -0 -0 0 -0 -0 0 0 0 0 0 -0 -0 -0 -0 -0 -0 0 -0 -0 0 0 0 0 0 0 0 0 0 0 0 0 0 0
0 0 0 0 0 0 -0 -0 -0 -0 0 -0 -0 -0 0 -0 0 0 0 0 0 0 0 0 0 0 0 0 0 0 -0 0 0 0 0 0 0 0 0 0 0 0 0 0
0 0 0 0 0 0 -0 -0 -0 0 0 0 -0 0 0 0 0 0 0 0 0 0 0 -0 -0 0 0 -0 -0 0 0 0 0 -0 0 0 0 0 0 0 0 0 0 0
0 0 -0 -0 -0 -0 -0 -0 0 0 0 0 0 0 0 0 0 0 -0 -0 0 0 0 0 0 0 0 0 0 0 0 0 0 0 0 -0 0 0 0 0 0 0 0 0
0 0 0 0 0 -0 -0 -0 0 0 0 0 0 0 -0 -0 -0 -0 0 0 0 0 0 0 0 0 0 0 0 0 0 0 0 0 0 0 0 0 0 0 0 0 0 0
0 -0 0 0 0 0 0 0 0 0 0 0 0 0 -0 0 -0 -0 0 0 0 0 0 0 0 0 0 0 0 0 0 0 0 0 0 0 0 0 0 0 0 0 0 0
0 0 0 0 0 0 0 0 0 0 0 0 0 0 0 0 0 0 0 0 0 0 0 0 0 0 0 0 0 0 0 0 0 0 0 0 0 0 0 0 0 0 0 0
0 0 0 0 0 0 0 0 0 0 0 0 0 0 0 0 0 0 0 0 0 0 0 0 0 0 0 0 0 0 0 0 0 0 0 0 0 0 0 0 0 0 0 0
Wind_Speed_500mb
45 26 29 39 35 41 36 42 37 29 48 11 10 20 15 32 56 40 52 65 73 78 80 82 76 68 68 65 63 66 72 77 74 63 66 64 65 58 51 53 46 42 39 41
27 38 48 38 36 38 46 46 46 37 31 6 17 23 24 25 22 44 59 52 52 71 52 87 71 46 65 61 48 62 67 74 74 63 60 58 64 65 56 59 56 52 49 43
41 45 40 42 43 34 48 41 36 40 5 10 8 15 13 25 37 55 62 60 44 32 28 16 21 23 20 15 8 46 62 70 67 63 56 55 65 59 59 66 72 66 56 49
35 43 47 44 30 40 38 38 45 47 10 7 5 8 14 15 22 29 37 32 49 30 42 36 31 25 16 13 5 17 56 65 69 68 66 62 67 67 75 74 67 61 57 57
28 32 26 38 43 34 42 35 43 43 10 12 11 4 13 12 20 17 24 51 58 67 53 44 31 23 15 9 8 3 11 33 64 64 65 62 64 59 61 63 60 55 53 57
33 43 19 11 14 30 44 3 12 8 4 6 22 23 9 5 31 14 45 60 49 53 46 42 36 22 19 16 17 19 22 22 14 72 72 71 67 60 57 58 54 60 61 65
22 29 29 17 16 29 24 17 3 5 8 8 26 22 15 16 31 35 43 54 59 57 49 45 43 38 37 40 40 41 43 35 24 62 77 74 69 64 60 57 54 63 66 65
7 12 5 13 32 13 10 14 9 10 6 7 17 11 6 25 32 63 59 60 62 60 54 49 47 47 46 46 48 53 65 57 28 47 76 72 67 62 60 55 55 58 59 57
10 9 40 36 30 38 12 13 2 7 3 5 5 3 4 35 37 33 51 60 61 61 55 53 54 49 46 42 44 49 55 76 57 47 75 68 61 59 65 59 56 57 53 53
7 11 20 22 8 6 14 5 7 6 2 8 9 11 6 26 28 23 38 48 55 63 70 65 57 50 45 41 43 32 30 54 48 51 72 65 62 62 65 66 65 63 55 47
3 6 6 2 10 4 8 7 10 5 5 9 8 7 7 14 29 30 35 52 60 61 62 60 58 53 50 44 42 31 27 14 25 41 60 64 59 67 62 66 65 58 50 44
9 8 7 4 9 9 13 10 1 5 5 3 3 9 32 31 34 41 47 50 48 48 55 64 63 62 64 59 54 42 27 15 26 34 40 42 43 68 61 63 61 52 45 40
10 4 5 4 3 8 3 11 18 5 5 6 4 6 24 34 35 41 40 41 46 46 46 58 70 76 73 77 67 57 34 11 11 25 27 39 53 55 55 60 52 42 36 31
18 8 8 11 11 4 8 8 7 13 1 4 11 18 27 27 25 30 38 45 47 45 46 59 64 68 75 76 79 72 48 26 5 9 27 32 48 48 46 42 35 36 40 39
8 14 17 15 23 30 18 26 17 14 19 4 20 32 24 23 23 32 40 41 39 40 45 58 63 65 68 72 75 77 68 42 25 15 20 30 37 37 45 39 38 37 39 37
16 8 9 30 28 23 27 35 46 41 26 29 32 25 27 34 33 40 40 36 38 40 44 50 56 59 62 63 65 69 73 63 34 27 22 15 28 39 43 49 48 43 43 37
3 10 12 6 13 21 27 36 43 42 43 27 23 12 20 24 27 37 38 38 37 34 35 50 47 50 54 55 55 60 60 64 58 46 42 32 21 39 48 45 51 54 55 46
6 5 6 3 10 9 17 29 37 47 44 37 27 19 24 29 33 42 38 35 33 36 38 42 40 42 44 46 49 46 51 53 60 61 57 52 43 27 31 33 36 40 51 47
8 5 6 4 6 14 25 27 20 10 27 36 29 17 28 27 24 41 40 33 34 37 31 36 37 35 42 39 38 44 46 48 52 57 51 54 57 52 42 36 31 35 34 37
15 12 5 2 6 10 13 39 40 10 15 32 34 27 19 6 10 6 28 29 31 36 33 39 40 28 30 41 38 39 42 46 49 42 44 43 41 49 52 57 51 48 40 38
10 9 13 12 8 5 28 44 39 6 6 20 29 33 41 15 14 9 20 28 35 35 30 32 32 39 35 38 41 42 44 47 42 38 32 32 28 38 38 41 36 43 37 36
8 8 8 8 8 7 57 16 13 4 19 25 29 25 28 24 23 29 33 36 33 28 27 26 30 32 33 33 39 47 49 43 41 32 28 28 26 28 28 24 27 30 28 29
8 6 5 9 7 11 24 26 25 22 21 19 19 20 25 27 30 33 33 34 28 24 26 25 29 29 26 29 35 39 40 39 38 39 38 34 28 24 21 21 23 22 26 24
8 11 7 5 10 18 22 23 24 23 23 22 23 21 19 20 19 27 24 21 29 27 24 23 25 31 34 25 28 32 30 28 30 35 42 43 36 32 30 30 29 28 32 28
9 10 7 8 18 22 18 17 18 23 22 19 21 24 22 20 21 20 25 23 18 18 20 22 26 28 32 32 24 22 22 22 25 27 29 34 38 41 36 37 40 36 36 30
13 6 3 4 10 12 8 11 23 23 23 18 23 17 20 22 21 8 10 9 10 14 16 20 23 25 27 28 30 31 23 21 20 20 21 24 26 28 33 36 35 37 33 30
Wind_Direction_500mb
271 271 258 247 238 242 260 271 246 251 250 252 345 288 290 216 242 253 238 236 242 226 230 233 236 230 226 228 239 217 215 220 215 205 205 216 226 224 214 221 229 232 228 226
293 254 255 263 237 248 243 254 266 276 264 57 5 312 321 305 276 268 271 240 247 210 228 230 229 222 219 221 238 223 221 216 216 215 217 223 222 226 219 213 222 227 234 230
270 254 271 249 253 255 248 242 254 254 99 79 10 292 251 271 275 266 269 239 226 198 182 148 123 114 115 122 139 219 209 208 215 221 219 216 219 221 222 225 215 223 232 237
281 268 247 260 242 255 241 245 244 252 186 225 124 303 290 240 263 240 264 245 202 157 102 95 86 85 90 77 94 72 219 215 213 218 218 229 239 233 232 233 227 223 224 228
249 279 242 254 246 242 268 242 254 237 130 137 181 289 269 253 276 250 237 89 65 65 61 58 55 44 31 19 359 304 85 223 230 230 233 234 243 245 239 237 235 225 226 226
268 268 246 246 279 249 275 134 49 42 75 222 179 186 266 233 238 209 75 60 68 56 45 38 28 17 347 322 292 261 266 241 282 231 236 235 241 244 233 233 232 222 226 227
278 263 242 185 293 287 227 137 71 173 195 221 174 181 212 334 101 79 103 87 68 53 38 24 11 356 334 311 286 267 267 259 308 229 233 235 236 235 238 236 229 226 222 226
237 329 199 241 224 207 165 149 169 186 179 158 170 227 319 139 80 81 67 72 63 52 32 16 360 348 337 320 302 285 264 262 266 223 236 230 228 223 227 231 233 230 228 235
11 324 309 281 263 202 203 192 226 68 196 64 155 66 93 93 49 66 77 62 51 42 33 13 1 354 342 332 321 306 279 254 247 224 230 223 220 219 213 226 233 235 235 238
102 303 255 275 23 45 153 120 65 39 356 206 168 130 108 70 73 32 62 57 49 39 27 19 12 4 355 344 329 324 308 264 248 235 220 229 217 223 217 221 231 229 238 239
158 261 150 1 3 57 55 32 40 64 191 337 179 106 53 81 107 73 59 55 49 39 30 20 16 18 10 360 348 356 32 158 209 236 220 219 222 223 214 218 226 232 238 239
257 320 347 36 248 313 325 154 13 134 195 190 1 71 95 85 73 63 55 55 50 44 33 30 27 25 25 17 5 6 30 126 181 202 221 236 232 215 213 216 218 226 233 236
298 271 349 346 137 27 272 175 199 211 301 22 354 89 54 69 74 74 70 60 51 42 31 31 31 28 29 29 20 4 26 40 190 206 233 237 218 212 215 204 208 225 221 219
304 60 36 284 308 304 143 134 53 191 111 98 65 117 82 68 66 68 64 59 51 40 30 30 33 32 33 37 33 23 10 36 70 166 205 223 218 209 191 189 199 210 216 215
38 15 343 298 309 69 48 69 34 27 133 61 103 80 80 74 68 68 66 58 50 40 32 29 30 29 32 31 38 39 24 13 37 75 175 207 198 189 178 180 180 200 214 213
7 336 300 87 88 76 88 86 69 54 46 86 91 78 71 66 66 59 57 55 45 33 26 23 26 29 29 31 33 42 43 27 16 55 64 113 187 192 186 187 184 192 201 207
39 337 352 81 132 92 63 63 61 58 43 56 57 84 85 67 55 45 46 42 39 28 24 20 23 24 29 31 35 38 46 49 36 42 54 43 99 159 181 173 186 196 198 204
318 296 229 233 354 71 89 53 76 65 38 35 70 80 99 105 85 60 48 44 32 30 25 20 18 22 23 31 36 40 43 52 56 44 43 56 52 86 138 159 161 166 164 172
232 357 355 34 38 143 35 11 349 45 44 25 32 56 133 136 89 46 33 39 46 39 22 16 11 22 24 27 32 39 42 46 52 61 52 45 56 70 80 102 114 126 136 135
9 29 118 244 58 39 354 329 321 284 50 17 32 32 46 243 68 27 15 39 51 44 17 11 18 35 36 30 30 33 37 40 46 50 56 62 60 64 68 72 76 82 90 89
357 1 30 10 90 82 350 329 320 98 17 21 49 47 48 66 73 39 45 57 58 45 39 18 27 39 44 39 40 40 41 40 33 34 51 66 71 69 77 71 73 77 75 79
40 343 17 356 55 13 356 11 56 65 55 54 58 59 71 72 64 65 66 60 53 51 48 28 26 39 51 53 50 44 40 37 35 37 39 42 55 69 75 82 88 85 88 83
44 48 81 27 82 77 47 69 69 76 78 60 66 72 75 78 77 71 63 64 55 51 45 31 24 29 48 54 56 56 42 33 44 49 51 53 54 60 69 75 78 83 85 95
20 77 83 149 92 73 63 62 66 66 69 63 63 62 70 71 73 72 63 61 55 44 32 20 26 33 39 58 60 66 67 34 41 51 57 58 59 65 74 80 83 81 80 89
0 19 72 87 123 104 74 59 64 62 60 65 67 64 64 81 78 80 66 61 53 41 27 24 29 34 42 51 60 61 55 45 56 60 55 59 62 61 63 74 77 82 86 86
3 355 354 113 93 94 100 86 73 66 62 68 73 86 83 89 85 107 79 61 42 39 23 29 30 32 45 52 55 60 60 55 45 57 57 56 55 56 56 60 70 73 78 91
Wind_Speed_850mb
45 26 29 39 35 41 36 42 37 29 48 11 10 20 15 32 56 40 52 65 73 78 80 82 76 68 68 65 63 66 72 77 74 63 66 64 65 58 51 53 46 42 39 41
27 38 48 38 36 38 46 46 46 37 31 6 17 23 24 25 22 44 59 52 52 71 52 87 71 46 65 61 48 62 67 74 74 63 60 58 64 65 56 59 56 52 49 43
41 45 40 42 43 34 48 41 36 40 5 10 8 15 13 25 37 55 62 60 44 32 28 16 21 23 20 15 8 46 62 70 67 63 56 55 65 59 59 66 72 66 56 49
35 43 47 44 30 40 38 38 45 47 10 7 5 8 14 15 22 29 37 32 49 30 42 36 31 25 16 13 5 17 56 65 69 68 66 62 67 67 75 74 67 61 57 57
28 32 26 38 43 34 42 35 43 43 10 12 11 4 13 12 20 17 24 51 58 67 53 44 31 23 15 9 8 3 11 33 64 64 65 62 64 59 61 63 60 55 53 57
33 43 19 11 14 30 44 3 12 8 4 6 22 23 9 5 31 14 45 60 49 53 46 42 36 22 19 16 17 19 22 22 14 72 72 71 67 60 57 58 54 60 61 65
22 29 29 17 16 29 24 17 3 5 8 8 26 22 15 16 31 35 43 54 59 57 49 45 43 38 37 40 40 41 43 35 24 62 77 74 69 64 60 57 54 63 66 65
7 12 5 13 32 13 10 14 9 10 6 7 17 11 6 25 32 63 59 60 62 60 54 49 47 47 46 46 48 53 65 57 28 47 76 72 67 62 60 55 55 58 59 57
10 9 40 36 30 38 12 13 2 7 3 5 5 3 4 35 37 33 51 60 61 61 55 53 54 49 46 42 44 49 55 76 57 47 75 68 61 59 65 59 56 57 53 53
7 11 20 22 8 6 14 5 7 6 2 8 9 11 6 26 28 23 38 48 55 63 70 65 57 50 45 41 43 32 30 54 48 51 72 65 62 62 65 66 65 63 55 47
3 6 6 2 10 4 8 7 10 5 5 9 8 7 7 14 29 30 35 52 60 61 62 60 58 53 50 44 42 31 27 14 25 41 60 64 59 67 62 66 65 58 50 44
9 8 7 4 9 9 13 10 1 5 5 3 3 9 32 31 34 41 47 50 48 48 55 64 63 62 64 59 54 42 27 15 26 34 40 42 43 68 61 63 61 52 45 40
10 4 5 4 3 8 3 11 18 5 5 6 4 6 24 34 35 41 40 41 46 46 46 58 70 76 73 77 67 57 34 11 11 25 27 39 53 55 55 60 52 42 36 31
18 8 8 11 11 4 8 8 7 13 1 4 11 18 27 27 25 30 38 45 47 45 46 59 64 68 75 76 79 72 48 26 5 9 27 32 48 48 46 42 35 36 40 39
8 14 17 15 23 30 18 26 17 14 19 4 20 32 24 23 23 32 40 41 39 40 45 58 63 65 68 72 75 77 68 42 25 15 20 30 37 37 45 39 38 37 39 37
16 8 9 30 28 23 27 35 46 41 26 29 32 25 27 34 33 40 40 36 38 40 44 50 56 59 62 63 65 69 73 63 34 27 22 15 28 39 43 49 48 43 43 37
3 10 12 6 13 21 27 36 43 42 43 27 23 12 20 24 27 37 38 38 37 34 35 50 47 50 54 55 55 60 60 64 58 46 42 32 21 39 48 45 51 54 55 46
6 5 6 3 10 9 17 29 37 47 44 37 27 19 24 29 33 42 38 35 33 36 38 42 40 42 44 46 49 46 51 53 60 61 57 52 43 27 31 33 36 40 51 47
8 5 6 4 6 14 25 27 20 10 27 36 29 17 28 27 24 41 40 33 34 37 31 36 37 35 42 39 38 44 46 48 52 57 51 54 57 52 42 36 31 35 34 37
15 12 5 2 6 10 13 39 40 10 15 32 34 27 19 6 10 6 28 29 31 36 33 39 40 28 30 41 38 39 42 46 49 42 44 43 41 49 52 57 51 48 40 38
10 9 13 12 8 5 28 44 39 6 6 20 29 33 41 15 14 9 20 28 35 35 30 32 32 39 35 38 41 42 44 47 42 38 32 32 28 38 38 41 36 43 37 36
8 8 8 8 8 7 57 16 13 4 19 25 29 25 28 24 23 29 33 36 33 28 27 26 30 32 33 33 39 47 49 43 41 32 28 28 26 28 28 24 27 30 28 29
8 6 5 9 7 11 24 26 25 22 21 19 19 20 25 27 30 33 33 34 28 24 26 25 29 29 26 29 35 39 40 39 38 39 38 34 28 24 21 21 23 22 26 24
8 11 7 5 10 18 22 23 24 23 23 22 23 21 19 20 19 27 24 21 29 27 24 23 25 31 34 25 28 32 30 28 30 35 42 43 36 32 30 30 29 28 32 28
9 10 7 8 18 22 18 17 18 23 22 19 21 24 22 20 21 20 25 23 18 18 20 22 26 28 32 32 24 22 22 22 25 27 29 34 38 41 36 37 40 36 36 30
13 6 3 4 10 12 8 11 23 23 23 18 23 17 20 22 21 8 10 9 10 14 16 20 23 25 27 28 30 31 23 21 20 20 21 24 26 28 33 36 35 37 33 30
Wind_Direction_850mb
271 271 258 247 238 242 260 271 246 251 250 252 345 288 290 216 242 253 238 236 242 226 230 233 236 230 226 228 239 217 215 220 215 205 205 216 226 224 214 221 229 232 228 226
293 254 255 263 237 248 243 254 266 276 264 57 5 312 321 305 276 268 271 240 247 210 228 230 229 222 219 221 238 223 221 216 216 215 217 223 222 226 219 213 222 227 234 230
270 254 271 249 253 255 248 242 254 254 99 79 10 292 251 271 275 266 269 239 226 198 182 148 123 114 115 122 139 219 209 208 215 221 219 216 219 221 222 225 215 223 232 237
281 268 247 260 242 255 241 245 244 252 186 225 124 303 290 240 263 240 264 245 202 157 102 95 86 85 90 77 94 72 219 215 213 218 218 229 239 233 232 233 227 223 224 228
249 279 242 254 246 242 268 242 254 237 130 137 181 289 269 253 276 250 237 89 65 65 61 58 55 44 31 19 359 304 85 223 230 230 233 234 243 245 239 237 235 225 226 226
268 268 246 246 279 249 275 134 49 42 75 222 179 186 266 233 238 209 75 60 68 56 45 38 28 17 347 322 292 261 266 241 282 231 236 235 241 244 233 233 232 222 226 227
278 263 242 185 293 287 227 137 71 173 195 221 174 181 212 334 101 79 103 87 68 53 38 24 11 356 334 311 286 267 267 259 308 229 233 235 236 235 238 236 229 226 222 226
237 329 199 241 224 207 165 149 169 186 179 158 170 227 319 139 80 81 67 72 63 52 32 16 360 348 337 320 302 285 264 262 266 223 236 230 228 223 227 231 233 230 228 235
11 324 309 281 263 202 203 192 226 68 196 64 155 66 93 93 49 66 77 62 51 42 33 13 1 354 342 332 321 306 279 254 247 224 230 223 220 219 213 226 233 235 235 238
102 303 255 275 23 45 153 120 65 39 356 206 168 130 108 70 73 32 62 57 49 39 27 19 12 4 355 344 329 324 308 264 248 235 220 229 217 223 217 221 231 229 238 239
158 261 150 1 3 57 55 32 40 64 191 337 179 106 53 81 107 73 59 55 49 39 30 20 16 18 10 360 348 356 32 158 209 236 220 219 222 223 214 218 226 232 238 239
257 320 347 36 248 313 325 154 13 134 195 190 1 71 95 85 73 63 55 55 50 44 33 30 27 25 25 17 5 6 30 126 181 202 221 236 232 215 213 216 218 226 233 236
298 271 349 346 137 27 272 175 199 211 301 22 354 89 54 69 74 74 70 60 51 42 31 31 31 28 29 29 20 4 26 40 190 206 233 237 218 212 215 204 208 225 221 219
304 60 36 284 308 304 143 134 53 191 111 98 65 117 82 68 66 68 64 59 51 40 30 30 33 32 33 37 33 23 10 36 70 166 205 223 218 209 191 189 199 210 216 215
38 15 343 298 309 69 48 69 34 27 133 61 103 80 80 74 68 68 66 58 50 40 32 29 30 29 32 31 38 39 24 13 37 75 175 207 198 189 178 180 180 200 214 213
7 336 300 87 88 76 88 86 69 54 46 86 91 78 71 66 66 59 57 55 45 33 26 23 26 29 29 31 33 42 43 27 16 55 64 113 187 192 186 187 184 192 201 207
39 337 352 81 132 92 63 63 61 58 43 56 57 84 85 67 55 45 46 42 39 28 24 20 23 24 29 31 35 38 46 49 36 42 54 43 99 159 181 173 186 196 198 204
318 296 229 233 354 71 89 53 76 65 38 35 70 80 99 105 85 60 48 44 32 30 25 20 18 22 23 31 36 40 43 52 56 44 43 56 52 86 138 159 161 166 164 172
232 357 355 34 38 143 35 11 349 45 44 25 32 56 133 136 89 46 33 39 46 39 22 16 11 22 24 27 32 39 42 46 52 61 52 45 56 70 80 102 114 126 136 135
9 29 118 244 58 39 354 329 321 284 50 17 32 32 46 243 68 27 15 39 51 44 17 11 18 35 36 30 30 33 37 40 46 50 56 62 60 64 68 72 76 82 90 89
357 1 30 10 90 82 350 329 320 98 17 21 49 47 48 66 73 39 45 57 58 45 39 18 27 39 44 39 40 40 41 40 33 34 51 66 71 69 77 71 73 77 75 79
40 343 17 356 55 13 356 11 56 65 55 54 58 59 71 72 64 65 66 60 53 51 48 28 26 39 51 53 50 44 40 37 35 37 39 42 55 69 75 82 88 85 88 83
44 48 81 27 82 77 47 69 69 76 78 60 66 72 75 78 77 71 63 64 55 51 45 31 24 29 48 54 56 56 42 33 44 49 51 53 54 60 69 75 78 83 85 95
20 77 83 149 92 73 63 62 66 66 69 63 63 62 70 71 73 72 63 61 55 44 32 20 26 33 39 58 60 66 67 34 41 51 57 58 59 65 74 80 83 81 80 89
0 19 72 87 123 104 74 59 64 62 60 65 67 64 64 81 78 80 66 61 53 41 27 24 29 34 42 51 60 61 55 45 56 60 55 59 62 61 63 74 77 82 86 86
3 355 354 113 93 94 100 86 73 66 62 68 73 86 83 89 85 107 79 61 42 39 23 29 30 32 45 52 55 60 60 55 45 57 57 56 55 56 56 60 70 73 78 91